OpenBCM V1.13 (Linux)

Packet Radio Mailbox

DB0FHN

[JN59NK Nuernberg]

 Login: GUEST





  
LU9DCE > KEP      25.03.19 19:34l 257 Lines 12472 Bytes #999 (0) @ WW
BID : 20529_LU9DCE
Read: DF7EAV DK3UZ GUEST
Subj: TLE 25 03
Path: DB0FHN<DB0BLO<DB0ERF<IZ3LSV<IK6ZDE<VE2PKT<N3HYM<LU9DCE
Sent: 190325/1800Z 20529@LU9DCE.TOR.BA.ARG.SOAM LinBPQ6.0.18

            __    _  _  ___  ____   ___  ____    ____  ____  ____
           (  )  / )( \/ _ \(    \ / __)(  __)  (  _ \(  _ \/ ___)
           / (_/\) \/ (\__  )) D (( (__  ) _)    ) _ ( ) _ (\___ \
           \____/\____/(___/(____/ \___)(____)  (____/(____/(____/
               ESTACION DE PACKET RADIO - BUENOS AIRES (GF05OM)
                   BOLETINES INFORMATIVOS PROGRAMADOS (BIP)
                  SOPORTE TECNICO - HELLOCODELINUX@GMAIL.COM

+----------------------------------------------------------------------------+
OSCAR 7
1  7530U 74089B   19084.56562328 -.00000044  00000-0  68019-5 0  9990
2  7530 101.7346  53.1341 0012247 149.9628 311.2061 12.53637226 29856
OSCAR 11 (UoSAT 2)
1 14781U 84021B   19083.87998305  .00000022  00000-0  87836-5 0  9997
2 14781  97.6200 112.6164 0007222 235.5606 124.4926 14.83071231886042
OSCAR 19 (LUSAT)
1 20442U 90005G   19084.13073066  .00000016  00000-0  22012-4 0  9992
2 20442  98.6410  26.3118 0012623  45.6110 314.6106 14.32920269524127
EYESAT A
1 22825U 93061C   19083.93046686 -.00000018  00000-0  10951-4 0  9991
2 22825  98.8980  70.6358 0007387 246.0561 113.9847 14.30053848329699
ITAMSAT
1 22826U 93061D   19083.88215080 -.00000014  00000-0  12449-4 0  9992
2 22826  98.8920  70.5887 0008007 234.1352 125.9086 14.30386999329881
RADIO ROSTO
1 23439U 94085A   19083.86782286 -.00000056 +00000-0 -38327-3 0  9994
2 23439 064.8140 254.9130 0148219 129.6974 340.1915 11.27568270998214
JAS 2
1 24278U 96046B   19084.44122217 -.00000023  00000-0  90546-5 0  9998
2 24278  98.5241 249.4704 0351382 101.1206 262.9649 13.53090052116270
TECHSAT 1B
1 25397U 98043D   19084.43889497 -.00000013  00000-0  13666-4 0  9995
2 25397  98.6814  25.6514 0000376 345.0738  15.0429 14.23662162 75740
ISS (ZARYA)
1 25544U 98067A   19084.43179578 -.00000469  00000-0 -52829-8 0  9991
2 25544  51.6445  57.5845 0002338 110.4745  32.6783 15.52430862162249
PCSAT
1 26931U 01043C   19084.55458670 -.00000040  00000-0  16508-4 0  9990
2 26931  67.0507 223.3720 0005512 275.9111  84.1362 14.30536060912796
SAUDISAT 1C
1 27607U 02058C   19084.14981872 -.00000042  00000-0  15022-4 0  9990
2 27607  64.5549 311.1276 0082375 272.8181  86.3495 14.75529270874413
CUTE-1
1 27844U 03031E   19084.17206821  .00000028  00000-0  32571-4 0  9993
2 27844  98.6868  93.6542 0008659 279.6325  80.3875 14.22166255816137
CUBESAT XI 4
1 27848U 03031J   19083.71765969  .00000016  00000-0  27241-4 0  9994
2 27848  98.6948  93.6868 0008622 293.8767  66.1507 14.21762943815924
MOZHAYETS 4
1 27939U 03042A   19084.50309378  .00000074  00000-0  21840-4 0  9996
2 27939  98.0251 222.0506 0012241 344.1204  15.9625 14.66762483828050
CUBESAT XI 5
1 28895U 05043F   19084.46472034  .00000096  00000-0  27258-4 0  9999
2 28895  97.9445 230.1846 0015478 259.5538 100.3921 14.63640974715012
CUTE-1.7+APD II
1 32785U 08021C   19084.16534367  .00000145  00000-0  21294-4 0  9995
2 32785  97.5495  87.9189 0013012 179.9179 180.2043 14.88266801590969
DELFI C3
1 32789U 08021G   19084.22063792  .00001392  00000-0  97533-4 0  9999
2 32789  97.4751 136.4287 0013561  62.7870 297.4738 15.06739038594090
SEEDS
1 32791U 08021J   19084.52854963  .00000217  00000-0  27452-4 0  9991
2 32791  97.5304  94.1398 0014034 155.5796 204.6090 14.90758761591426
YUBELEINY
1 32953U 08025A   19084.41198957  .00000020  00000-0  75656-4 0  9998
2 32953  82.5065 197.7839 0017955 317.2954  42.6729 12.43088213491716
PRISM (HITOMI)
1 33493U 09002B   19084.21662854 -.00000039  00000-0  21391-5 0  9993
2 33493  98.1227   1.9350 0016275 104.2229 256.0800 14.96550307552364
KKS-1 (KISEKI)
1 33499U 09002H   19084.15692305  .00000079  00000-0  19691-4 0  9998
2 33499  98.3548 280.1070 0010343 115.6858 244.5419 14.75416496546618
SWISSCUBE
1 35932U 09051B   19083.77970847  .00000112  00000-0  36240-4 0  9990
2 35932  98.5772 247.2824 0008707  73.2081 287.0070 14.56255627504279
BEESAT
1 35933U 09051C   19084.20027280  .00000093  00000-0  31982-4 0  9990
2 35933  98.5806 249.4299 0007002  83.9727 276.2268 14.56348556504442
ITUPSAT 1
1 35935U 09051E   19084.20877598  .00000066  00000-0  26235-4 0  9992
2 35935  98.5918 249.6819 0009287  80.3118 279.9127 14.55512369504202
XIWANG-1 (HOPE-1)
1 36122U 09072B   19083.69841103 -.00000043  00000-0 -32199-5 0  9993
2 36122 100.0745  90.1227 0007726 178.3631 181.7480 13.16348746445561
TISAT 1
1 36799U 10035E   19084.45649360  .00000177  00000-0  23967-4 0  9998
2 36799  98.1423 233.8473 0012333  12.3101 347.8415 14.91033391472068
JUGNU
1 37839U 11058B   19083.42035456  .00000329  00000-0  33847-4 0  9998
2 37839  19.9605 137.9315 0019042  95.7261 338.1011 14.12645162385046
SRMSAT
1 37841U 11058D   19083.70858045  .00000322  00000-0  31987-4 0  9995
2 37841  19.9710 191.1819 0011882 332.9841 147.9263 14.10627299384538
M-CUBED/EXP-1 PRIME
1 37855U 11061F   19083.52377166  .00000940  00000-0  55249-4 0  9997
2 37855 101.7267 294.8416 0174222 332.1959  27.0022 15.05211347403816
HORYU 2
1 38340U 12025D   19083.66654946  .00000126  00000-0  26484-4 0  9992
2 38340  98.3399 119.6289 0012290  43.8276 316.3905 14.75682238368472
STRAND 1
1 39090U 13009E   19084.51544996  .00000014  00000-0  20094-4 0  9993
2 39090  98.4970 291.8587 0009167 174.9706 185.1573 14.35075196318178
SOMP
1 39134U 13015E   19084.55389667  .00001075  00000-0  58949-4 0  9993
2 39134  64.8627 296.2205 0022827 315.8059  44.1244 15.19922240327650
BEESAT 3
1 39135U 13015F   19083.86456726 +.00000427 +00000-0 +31166-4 0  9990
2 39135 064.8682 315.5702 0010110 301.5668 058.4471 15.17274162326839
BEESAT 2
1 39136U 13015G   19084.19953040  .00000405  00000-0  30500-4 0  9996
2 39136  64.8699 318.0505 0011583 297.6525  62.3424 15.16718725327200
CUBEBUG 1
1 39153U 13018D   19084.47271501  .00000167  00000-0  28742-4 0  9994
2 39153  97.9742 183.1042 0018315 113.4463 246.8677 14.80529220319219
ZACUBE
1 39417U 13066B   19084.17496552  .00000146  00000-0  24900-4 0  9991
2 39417  97.5682 102.4591 0057839 315.4494  44.2077 14.81072723288385
TRITON 1
1 39427U 13066M   19084.51636132  .00000201  00000-0  39716-4 0  9993
2 39427  97.6687  67.1977 0115411  78.3443 283.0688 14.67796066285843
GOMX 1
1 39430U 13066Q   19084.45847712  .00000120  00000-0  30615-4 0  9997
2 39430  97.7364  46.6773 0151427 162.4519 198.1975 14.59209821284171
HUMSAT D
1 39433U 13066T   19084.11361791  .00000141  00000-0  19196-4 0  9995
2 39433  97.5651 135.0683 0029824 223.9580 135.9268 14.92111928290314
CUBEBUG 2
1 39440U 13066AA  19084.52671685  .00000219  00000-0  37415-4 0  9994
2 39440  97.6020  87.9968 0080374   2.8025 357.3620 14.75811348287412
FUNCUBE 1
1 39444U 13066AE  19084.08742622  .00000193  00000-0  30273-4 0  9995
2 39444  97.5670 104.2353 0056836 309.8878  49.7346 14.81882364287251
UWE-3
1 39446U 13066AG  19084.47359962  .00000164  00000-0  28593-4 0  9991
2 39446  97.5838  94.8570 0069471 339.3792  20.4619 14.78346043286675
SPROUT
1 39770U 14029E   19084.39038537  .00000593  00000-0  71997-4 0  9996
2 39770  97.8796 188.2836 0009149  16.0076 344.1441 14.87224089262155
UNISAT 6
1 40012U 14033C   19084.20753966  .00000132  00000-0  27117-4 0  9996
2 40012  97.7705 314.4360 0058822  15.0115 345.2822 14.73940853256095
DUCHIFAT 1
1 40021U 14033M   19083.82070727  .00000314  00000-0  38035-4 0  9993
2 40021  97.9224   8.1446 0012488 339.9117  20.1607 14.90553662258755
QB50P1
1 40025U 14033R   19083.81323823  .00000205  00000-0  27913-4 0  9996
2 40025  97.9065   3.6373 0012184 349.0236  11.0713 14.88887875258545
CHUBUSAT 1
1 40300U 14070C   19084.52804171  .00000444  00000-0  22398-4 0  9999
2 40300  97.3346 160.8434 0020125   0.2149 124.5123 15.21960432243069
NUDT-PHONESAT
1 40900U 15049B   19084.40867961  .00001743  00000-0  78289-4 0  9998
2 40900  97.4401  94.5930 0014725 119.2287 348.5733 15.22410701194683
ZDPS 2A
1 40901U 15049C   19084.50165372  .00000637  00000-0  35000-4 0  9992
2 40901  97.4611  91.5623 0014932 133.2709  17.8016 15.17564082194314
ZDPS 2B
1 40902U 15049D   19084.51655161  .00000429  00000-0  24813-4 0  9993
2 40902  97.4537  89.1882 0014810 130.5663  28.1453 15.17336339194295
XW-2A
1 40903U 15049E   19084.49427358  .00001640  00000-0  41030-4 0  9992
2 40903  97.3490 126.7387 0015776  93.1515  14.5825 15.41501197197123
KAITUO 1A
1 40904U 15049F   19084.49335830  .00000405  00000-0  24956-4 0  9992
2 40904  97.4665  87.9686 0015700 137.0527  13.9650 15.15277787194095
OBJECT G
1 40905U 15049G   19084.51502771  .00000039  00000-0  56870-5 0  9990
2 40905  97.4689  85.6494 0016791 132.0681  26.5877 15.14209674193988
XW-2C
1 40906U 15049H   19084.37083554  .00000248  00000-0  16547-4 0  9996
2 40906  97.4670  87.8726 0016118 130.0482 337.3437 15.15550600194076
XW-2D
1 40907U 15049J   19084.49880983  .00000489  00000-0  29080-4 0  9994
2 40907  97.4650  87.6771 0015676 126.6220  24.5322 15.15730495194106
LILACSAT 2
1 40908U 15049K   19084.39089809  .00000363  00000-0  23704-4 0  9990
2 40908  97.4778  86.5502 0017277 132.9689 334.9635 15.13729686193906
XW-2F
1 40910U 15049M   19084.39957510  .00001006  00000-0  54029-4 0  9995
2 40910  97.4628  89.4044 0016292 121.4066 346.4381 15.17102604194089
XW-2B
1 40911U 15049N   19084.38728994  .00000553  00000-0  32472-4 0  9991
2 40911  97.4677  88.1951 0015744 128.6331 337.2166 15.15665040193985
KAITUO 1B
1 40912U 15049P   19084.56112885  .00000916  00000-0  46379-4 0  9992
2 40912  97.4516  93.0244 0017052 107.0797   9.5634 15.19387871194380
TIANWANG 1C (TW-1C)
1 40926U 15051B   19084.44511515  .00008671  00000-0  13642-3 0  9992
2 40926  97.1475 130.7870 0007093 340.8818 144.7648 15.53817306196912
